Погода в Аренсбурге

Германия     53°40′13″N   10°14′01″E
темп.,
°C
ветер,
м/с
пор.,
м/с
влажн.,
%
обл.,
%
осадки,
мм/ч
давл.,
гПа
погр.,
м
7 марта, вс
вс701:00+2з597892 0.0 1027970
04:00+2зсз61072100 0.0 10251050
07:00+2зсз51074100 0.1 10231016
10:00+3з61075100 0.0 10221076
13:00+5з696899 0.0 10211017
16:00+5з5982100 0.1 1019782
19:00+4сз4991100 0.2 1019666
22:000ссв268580 0.1 1020210
8 марта, пн
пн801:00−2св256644 0.1 1021139
04:00−2ссв236841 0.0 102257
07:00−2с227240 0.0 102335
10:00+3св225240 0.0 1025549
13:00+6в223837 0.0 10251429
16:00+5юв11380 0.0 10231526
19:00+1вюв235747 0.0 102343
22:000юв2563100 0.0 1022155
9 марта, вт
вт901:000ююв2462100 0.0 1021124
04:000ююв2659100 0.1 1019209
07:00−1ю2570100 0.1 1019161
10:00+2ююв478091 0.1 1018578
13:00+4ю467686 0.1 1018692
16:00+4ю347393 0.0 1017705
19:00+3ю118194 0.0 101824
22:00+2ю118496 0.0 101924
10 марта, ср
ср1001:00+2юв228795 0.0 1019120
04:00+2ю1289100 0.0 1019176
07:00+2ююв2386100 0.0 1019155
10:00+4ююв3580100 0.0 1019420
13:00+7ю4773100 0.0 1018804
16:00+8ююз5871100 0.0 1015982
19:00+6ююв41181100 0.0 1013584
22:00+7ю61376100 0.0 1010921
11 марта, чт
чт1101:00+5ю81591100 2.2 1006932
04:00+6ююз81691100 4.1 1000845
07:00+9ююз71692100 9.1 9971032
10:00+10зюз62189100 1.3 9961945
13:00+9зюз8207099 1.6 9952189
16:00+7зюз11217993 0.8 9961726
19:00+7зюз6147996 1.5 9981402
22:00+6зюз6138389 0.4 9991056